When you browse on this site, cookies collect data to enhance your experience and personalize the content and advertising you see.
Visit our Privacy Policy to learn more. By continuing to use the site, you agree to this use of cookies and data.
  • In Österreich
  • Länderverzeichnis
  • Für 7 Tage
  • Wassertemperatur
  • Satellitenkarten
  • Wetterkarte
  • News
  • Widgets
  • user-avatar
    Anmelden

    Stündliche Wetter Ronchamp

    Heute, 21 März, Donnerstag

    Zeit Temperatur Niederschläge Wind Luftdruck Luftfeuchtigkeit
    00:00 +2°C° 0 mm 2 m/S 736 mmHg 78%
    01:00 +1°C° 0 mm 2 m/S 736 mmHg 78%
    02:00 +1°C° 0 mm 2 m/S 736 mmHg 78%
    03:00 +1°C° 0 mm 2 m/S 736 mmHg 79%
    04:00 +2°C° 0 mm 1 m/S 736 mmHg 78%
    05:00 +1°C° 0 mm 1 m/S 736 mmHg 77%
    06:00 +1°C° 0 mm 1 m/S 736 mmHg 77%
    07:00 +3°C° 0 mm 2 m/S 736 mmHg 67%
    08:00 +5°C° 0 mm 2 m/S 736 mmHg 57%
    09:00 +8°C° 0 mm 2 m/S 736 mmHg 47%
    10:00 +9°C° 0 mm 2 m/S 736 mmHg 44%
    11:00 +12°C° 0 mm 2 m/S 736 mmHg 42%
    12:00 +13°C° 0 mm 2 m/S 736 mmHg 39%
    13:00 +14°C° 0 mm 2 m/S 735 mmHg 40%
    14:00 +14°C° 0 mm 2 m/S 735 mmHg 40%
    15:00 +14°C° 0 mm 2 m/S 735 mmHg 41%
    16:00 +12°C° 0 mm 2 m/S 735 mmHg 49%
    17:00 +10°C° 0 mm 1 m/S 735 mmHg 58%
    18:00 +8°C° 0 mm 1 m/S 735 mmHg 66%
    19:00 +7°C° 0 mm 1 m/S 735 mmHg 69%
    20:00 +6°C° 0 mm 1 m/S 735 mmHg 73%
    21:00 +6°C° 0 mm 1 m/S 735 mmHg 76%
    22:00 +5°C° 0 mm 1 m/S 735 mmHg 77%
    23:00 +5°C° 0 mm 1 m/S 735 mmHg 79%

    Morgen, 22 März, Freitag

    Zeit Temperatur Niederschläge Wind Luftdruck Luftfeuchtigkeit
    00:00 +4°C° 0 mm 1 m/S 735 mmHg 80%
    01:00 +4°C° 0 mm 1 m/S 735 mmHg 81%
    02:00 +4°C° 0 mm 1 m/S 735 mmHg 81%
    03:00 +4°C° 0 mm 1 m/S 734 mmHg 81%
    04:00 +4°C° 0 mm 1 m/S 735 mmHg 81%
    05:00 +4°C° 0 mm 1 m/S 735 mmHg 80%
    06:00 +3°C° 0 mm 1 m/S 735 mmHg 79%
    07:00 +6°C° 0 mm 1 m/S 735 mmHg 71%
    08:00 +8°C° 0 mm 0 m/S 735 mmHg 63%
    09:00 +11°C° 0 mm 0 m/S 735 mmHg 54%
    10:00 +13°C° 0 mm 0 m/S 735 mmHg 51%
    11:00 +14°C° 0 mm 0 m/S 735 mmHg 48%
    12:00 +18°C° 0 mm 1 m/S 734 mmHg 44%
    13:00 +18°C° 0 mm 1 m/S 734 mmHg 45%
    14:00 +18°C° 0 mm 1 m/S 734 mmHg 46%
    15:00 +16°C° 0 mm 1 m/S 733 mmHg 47%
    16:00 +14°C° 0 mm 1 m/S 733 mmHg 56%
    17:00 +12°C° 0 mm 1 m/S 733 mmHg 66%
    18:00 +8°C° 0 mm 0 m/S 733 mmHg 76%
    19:00 +8°C° 0 mm 0 m/S 733 mmHg 78%
    20:00 +7°C° 0 mm 0 m/S 733 mmHg 81%
    21:00 +6°C° 0 mm 0 m/S 734 mmHg 84%
    22:00 +6°C° 0 mm 0 m/S 733 mmHg 85%
    23:00 +6°C° 0 mm 0 m/S 733 mmHg 86%

    übermorgen, 23 März, Samstag

    Zeit Temperatur Niederschläge Wind Luftdruck Luftfeuchtigkeit
    00:00 +5°C° 0 mm 0 m/S 733 mmHg 87%
    01:00 +5°C° 0 mm 0 m/S 733 mmHg 88%
    02:00 +5°C° 0 mm 0 m/S 733 mmHg 88%
    03:00 +4°C° 0 mm 0 m/S 733 mmHg 89%
    04:00 +4°C° 0 mm 0 m/S 733 mmHg 89%
    05:00 +4°C° 0 mm 0 m/S 733 mmHg 89%
    06:00 +4°C° 0 mm 0 m/S 733 mmHg 89%
    07:00 +7°C° 0 mm 0 m/S 733 mmHg 80%
    08:00 +9°C° 0 mm 0 m/S 733 mmHg 71%
    09:00 +12°C° 0 mm 0 m/S 734 mmHg 62%
    10:00 +14°C° 0 mm 0 m/S 733 mmHg 58%
    11:00 +15°C° 0 mm 0 m/S 733 mmHg 53%
    12:00 +16°C° 0 mm 0 m/S 733 mmHg 49%
    13:00 +18°C° 0 mm 1 m/S 732 mmHg 48%
    14:00 +18°C° 0 mm 1 m/S 732 mmHg 48%
    15:00 +18°C° 0 mm 1 m/S 732 mmHg 48%
    16:00 +15°C° 0 mm 1 m/S 731 mmHg 56%
    17:00 +13°C° 0 mm 1 m/S 731 mmHg 65%
    18:00 +11°C° 0 mm 1 m/S 731 mmHg 74%
    19:00 +10°C° 0 mm 1 m/S 731 mmHg 78%
    20:00 +9°C° 0 mm 1 m/S 732 mmHg 81%
    21:00 +8°C° 0 mm 1 m/S 732 mmHg 85%
    22:00 +8°C° 0 mm 1 m/S 731 mmHg 86%
    23:00 +8°C° 0 mm 1 m/S 731 mmHg 87%

    24 März, Sonntag

    Zeit Temperatur Niederschläge Wind Luftdruck Luftfeuchtigkeit
    00:00 +7°C° 0 mm 1 m/S 731 mmHg 87%
    01:00 +7°C° 0 mm 1 m/S 731 mmHg 88%
    02:00 +7°C° 0 mm 1 m/S 731 mmHg 89%
    03:00 +7°C° 0 mm 1 m/S 731 mmHg 89%
    04:00 +7°C° 0 mm 1 m/S 731 mmHg 89%
    05:00 +6°C° 0 mm 0 m/S 731 mmHg 90%
    06:00 +5°C° 0 mm 0 m/S 731 mmHg 90%
    07:00 +8°C° 0 mm 0 m/S 731 mmHg 81%
    08:00 +11°C° 0 mm 1 m/S 731 mmHg 72%
    09:00 +14°C° 0 mm 1 m/S 731 mmHg 64%
    10:00 +15°C° 0 mm 1 m/S 731 mmHg 61%
    11:00 +16°C° 0 mm 1 m/S 731 mmHg 58%
    12:00 +17°C° 0 mm 2 m/S 730 mmHg 56%
    13:00 +17°C° 0 mm 2 m/S 730 mmHg 55%
    14:00 +16°C° 0 mm 2 m/S 730 mmHg 55%
    15:00 +16°C° 0 mm 2 m/S 729 mmHg 55%
    16:00 +14°C° 0 mm 2 m/S 729 mmHg 65%
    17:00 +12°C° 0 mm 2 m/S 729 mmHg 74%
    18:00 +11°C° 0 mm 1 m/S 729 mmHg 84%
    19:00 +10°C° 0 mm 1 m/S 730 mmHg 87%
    20:00 +9°C° 0 mm 1 m/S 730 mmHg 90%
    21:00 +8°C° 0 mm 1 m/S 731 mmHg 93%
    22:00 +8°C° 0 mm 1 m/S 731 mmHg 93%
    23:00 +8°C° 0 mm 1 m/S 731 mmHg 94%

    25 März, Montag

    Zeit Temperatur Niederschläge Wind Luftdruck Luftfeuchtigkeit
    00:00 +7°C° 0 mm 1 m/S 731 mmHg 94%
    01:00 +7°C° 0 mm 1 m/S 731 mmHg 94%
    02:00 +7°C° 0 mm 1 m/S 731 mmHg 95%
    03:00 +7°C° 0 mm 1 m/S 731 mmHg 95%
    04:00 +7°C° 0.1 mm 1 m/S 731 mmHg 95%
    05:00 +8°C° 0.1 mm 1 m/S 731 mmHg 94%
    06:00 +8°C° 0.1 mm 1 m/S 732 mmHg 94%
    07:00 +9°C° 0 mm 1 m/S 732 mmHg 88%
    08:00 +9°C° 0 mm 2 m/S 732 mmHg 83%
    09:00 +10°C° 0 mm 2 m/S 732 mmHg 77%
    10:00 +12°C° 0 mm 2 m/S 732 mmHg 70%
    11:00 +12°C° 0 mm 2 m/S 732 mmHg 63%
    12:00 +12°C° 0 mm 3 m/S 732 mmHg 55%
    13:00 +12°C° 0 mm 3 m/S 732 mmHg 53%
    14:00 +12°C° 0 mm 3 m/S 732 mmHg 50%
    15:00 +12°C° 0 mm 3 m/S 732 mmHg 48%
    16:00 +10°C° 0 mm 3 m/S 732 mmHg 54%
    17:00 +8°C° 0 mm 2 m/S 732 mmHg 60%
    18:00 +6°C° 0 mm 2 m/S 732 mmHg 66%
    19:00 +5°C° 0 mm 2 m/S 732 mmHg 71%
    20:00 +5°C° 0 mm 2 m/S 733 mmHg 76%
    21:00 +5°C° 0 mm 1 m/S 733 mmHg 80%
    22:00 +4°C° 0 mm 1 m/S 734 mmHg 82%
    23:00 +3°C° 0 mm 2 m/S 734 mmHg 84%

    26 März, Dienstag

    Zeit Temperatur Niederschläge Wind Luftdruck Luftfeuchtigkeit
    00:00 +3°C° 0 mm 2 m/S 734 mmHg 86%
    01:00 +2°C° 0 mm 2 m/S 734 mmHg 88%
    02:00 +2°C° 0 mm 2 m/S 734 mmHg 90%
    03:00 +2°C° 0 mm 2 m/S 734 mmHg 91%
    04:00 +1°C° 0 mm 2 m/S 734 mmHg 90%
    05:00 +1°C° 0 mm 2 m/S 735 mmHg 89%
    06:00 -1°C° 0 mm 2 m/S 735 mmHg 87%
    07:00 +1°C° 0 mm 3 m/S 735 mmHg 77%
    08:00 +3°C° 0 mm 3 m/S 735 mmHg 66%
    09:00 +5°C° 0 mm 3 m/S 736 mmHg 55%
    10:00 +7°C° 0 mm 3 m/S 736 mmHg 52%
    11:00 +8°C° 0 mm 3 m/S 735 mmHg 48%
    12:00 +8°C° 0 mm 4 m/S 735 mmHg 44%
    13:00 +8°C° 0 mm 4 m/S 735 mmHg 45%
    14:00 +8°C° 0 mm 4 m/S 735 mmHg 45%
    15:00 +8°C° 0 mm 4 m/S 735 mmHg 46%
    16:00 +7°C° 0 mm 4 m/S 736 mmHg 53%
    17:00 +5°C° 0 mm 3 m/S 736 mmHg 60%
    18:00 +4°C° 0 mm 2 m/S 736 mmHg 66%
    19:00 +3°C° 0 mm 2 m/S 737 mmHg 69%
    20:00 +3°C° 0 mm 2 m/S 737 mmHg 72%
    21:00 +2°C° 0 mm 2 m/S 737 mmHg 75%
    22:00 +1°C° 0 mm 2 m/S 737 mmHg 77%
    23:00 +1°C° 0 mm 2 m/S 737 mmHg 78%
    Mehr zeigen